{"data":{"norad_id":64264,"intl_designator":"2025-120J","name":"STARLINK-34333","alt_names":[],"object_type":"PAYLOAD","status":"ACTIVE","operator":null,"country":"US","launch_date":"2025-06-04","launch_site_code":"AFWTR","launch_vehicle":null,"mission":null,"orbit_class":"UNKNOWN","rcs_meters":null,"size_class":null,"mass_kg":null,"dimensions":null,"purposes":["comms"],"wikipedia_slug":null,"has_3d_model":false,"image_url":null,"decayed_at":null,"tle_current":{"epoch":"2026-05-25T04:40:18.533280Z","epoch_age_seconds":57922,"freshness":"FRESH","line1":"1 64264U 25120J   26145.19465895  .00034304  00000+0  98892-3 0  9999","line2":"2 64264  53.1604 118.9067 0001345  85.2096 274.9061 15.35428820 55612","mean_motion":15.3542882,"eccentricity":0.0001345,"inclination_deg":53.1604,"raan_deg":118.9067,"arg_perigee_deg":85.2096,"mean_anomaly_deg":274.9061,"bstar":0.00098892,"rev_number":5561,"period_min":93.784875029244,"perigee_km":458.72739596969,"apogee_km":460.56675988665,"semimajor_km":6837.7840779282,"source":"CELESTRAK","updated_at":"2026-05-25T13:38:20.358540Z"}}}